GAOFEN 13-02 (55912 NORAD) Tracking and Keplerian Element Data

This shows tracking and keplerian element data for the satellite.

Feedback or suggestion? Click here.




ElementValue
Catalog55912
NameGAOFEN 13-02
Epoch Orbit69
Epoch Day127.23889566
Epoch Year2023
RAAN300.8549
Inclination2.9445
Eccentricity0.0002
Argument of Perigee300.4341
Mean Anonmoly216.2852
Mean Motion1.00272148
Decay Rate-2.19E-06
L11 55912U 23036A 23127.23889566 -.00000219 00000+0 00000+0 0 9999
L22 55912 2.9445 300.8549 0002000 300.4341 216.2852 1.00272148 690



Live tracking and technical data element details for GAOFEN 13-02 (NORAD 55912). GAOFEN 13-02 can be tracked NOW for your location showing map with azimuth and elevation plus other details from your city location.







IsCatalogInMostPopularTable: catalog: 55912, numindb: 6
Update: records affected: 1



GetName: 55912 GAOFEN 13-02

Hit Count: updated at: Tue, 06 Jun 2023 02:37:39 GMT